Weather History for Menominee, MI

Change the Weather History Date:

Thursday, February 17, 2011

  Actual Average Record
Temperature  
Mean Temperature 40 °F -  
Max Temperature 44 °F 30 °F 51 °F (1981)
Min Temperature 35 °F 13 °F -19 °F (1979)
Degree Days  
Heating Degree Days 26    
Moisture  
Dew Point 37 °F    
Average Humidity 85    
Maximum Humidity 93    
Minimum Humidity 81    
Precipitation  
Precipitation 0.00 in - - ()
Sea Level Pressure  
Sea Level Pressure 29.57 in    
Wind  
Wind Speed 8 mph (SSW)    
Max Wind Speed 16 mph    
Max Gust Speed 23 mph    
Visibility 1 miles    
Events      
Averages and records for this station are not official NWS values.
T = Trace of Precipitation, MM = Missing Value Source: NWS Daily Summary

Daily Weather History Graph

Daily Weather History Graph

Search for Another Location

Airport:

Trip Planner

Search our weather history database for the weather conditions in past years. The results will help you decide how hot, cold, wet, or windy it might be!

Date:

Astronomy

Feb. 17, 2011 Rise Set
Actual Time 6:48 AM CST 5:20 PM CST
Civil Twilight 6:18 AM CST 5:51 PM CST
Nautical Twilight 5:44 AM CST 6:25 PM CST
Astronomical Twilight 5:10 AM CST 6:59 PM CST
Moon 4:58 PM CST (2/17) 6:03 AM CST (2/17)
Length of Visible Light 11h 32m
Length of Day
10h 31m
Waxing Gibbous, 99% of the Moon is Illuminated
Feb 17
Waxing Gibbous
Feb 18
Full
Feb 24
Last Quarter
Mar 4
New
Mar 12
First Quarter

Hourly Weather History & Observations

Time (CST) Temp. Windchill Dew Point Humidity Pressure Visibility Wind Dir Wind Speed Gust Speed Precip Events Conditions
12:15 AM 35.6 °F 30.7 °F 30.2 °F 81% 29.79 in 2.0 mi South 5.8 mph - N/A   Overcast
12:35 AM 35.6 °F 31.7 °F 30.2 °F 81% 29.79 in 1.8 mi South 4.6 mph - N/A   Overcast
12:55 AM 35.6 °F 31.7 °F 30.2 °F 81% 29.77 in 1.5 mi ESE 4.6 mph - N/A   Overcast
1:15 AM 35.6 °F 30.7 °F 30.2 °F 81% 29.77 in 0.2 mi South 5.8 mph - N/A   Overcast
1:55 AM 35.6 °F 30.7 °F 32.0 °F 87% 29.74 in 0.2 mi SE 5.8 mph - N/A   Overcast
2:15 AM 35.6 °F 30.7 °F 32.0 °F 87% 29.73 in 0.5 mi SE 5.8 mph - N/A   Overcast
2:35 AM 35.6 °F 29.9 °F 30.2 °F 81% 29.71 in 0.5 mi SE 6.9 mph - N/A   Overcast
2:55 AM 35.6 °F 29.2 °F 32.0 °F 87% 29.70 in 2.0 mi SSE 8.1 mph - N/A   Overcast
3:15 AM 37.4 °F 30.8 °F 32.0 °F 81% 29.69 in 2.5 mi South 9.2 mph - N/A   Overcast
3:35 AM 37.4 °F 29.3 °F 33.8 °F 87% 29.68 in 3.0 mi South 12.7 mph 16.1 mph N/A   Overcast
3:55 AM 37.4 °F 30.8 °F 33.8 °F 87% 29.67 in 2.5 mi South 9.2 mph - N/A   Overcast
4:15 AM 37.4 °F 30.8 °F 33.8 °F 87% 29.65 in 2.0 mi South 9.2 mph - N/A   Overcast
4:35 AM 37.4 °F 32.1 °F 33.8 °F 87% 29.65 in 2.5 mi South 6.9 mph - N/A   Overcast
4:55 AM 37.4 °F 31.4 °F 33.8 °F 87% 29.64 in 2.5 mi South 8.1 mph - N/A   Overcast
5:15 AM 37.4 °F 30.8 °F 33.8 °F 87% 29.64 in 2.5 mi South 9.2 mph - N/A   Overcast
5:35 AM 37.4 °F 32.1 °F 33.8 °F 87% 29.63 in 2.5 mi South 6.9 mph - N/A   Overcast
5:55 AM 37.4 °F 31.4 °F 33.8 °F 87% 29.62 in 2.0 mi South 8.1 mph - N/A   Overcast
6:15 AM 37.4 °F 33.8 °F 32.0 °F 81% 29.62 in 1.8 mi South 4.6 mph - N/A   Overcast
6:35 AM 37.4 °F - 33.8 °F 87% 29.62 in 1.5 mi Calm Calm - N/A   Overcast
6:55 AM 37.4 °F - 33.8 °F 87% 29.61 in 0.8 mi Calm Calm - N/A   Overcast
7:15 AM 37.4 °F 32.8 °F 33.8 °F 87% 29.61 in 0.8 mi SE 5.8 mph - N/A   Overcast
7:35 AM 37.4 °F 34.9 °F 33.8 °F 87% 29.60 in 0.2 mi SSE 3.5 mph - N/A   Overcast
7:55 AM 39.2 °F 35.9 °F 35.6 °F 87% 29.60 in 0.2 mi South 4.6 mph - N/A   Overcast
8:15 AM 41.0 °F 36.4 °F 37.4 °F 87% 29.60 in 0.2 mi SSW 6.9 mph - N/A   Overcast
8:35 AM 42.8 °F 38.0 °F 37.4 °F 81% 29.59 in 0.2 mi SSW 8.1 mph - N/A   Overcast
8:55 AM 42.8 °F 38.0 °F 37.4 °F 81% 29.58 in 0.2 mi SW 8.1 mph - N/A   Overcast
9:15 AM 42.8 °F 38.6 °F 39.2 °F 87% 29.57 in 0.2 mi SSW 6.9 mph - N/A   Overcast
9:55 AM 42.8 °F 37.5 °F 39.2 °F 87% 29.57 in 0.2 mi SSW 9.2 mph - N/A   Overcast
10:15 AM 42.8 °F 37.5 °F 39.2 °F 87% 29.56 in 0.5 mi SSW 9.2 mph - N/A   Overcast
10:35 AM 44.6 °F 38.8 °F 39.2 °F 81% 29.56 in 0.5 mi SSW 11.5 mph - N/A   Overcast
10:55 AM 44.6 °F 38.8 °F 41.0 °F 87% 29.55 in 0.5 mi SSW 11.5 mph 17.3 mph N/A   Overcast
11:15 AM 44.6 °F 38.4 °F 41.0 °F 87% 29.54 in 0.8 mi SSW 12.7 mph - N/A   Overcast
11:35 AM 44.6 °F 38.4 °F 41.0 °F 87% 29.52 in 0.8 mi SSW 12.7 mph 17.3 mph N/A   Overcast
11:55 AM 44.6 °F 39.2 °F 41.0 °F 87% 29.52 in 1.2 mi SW 10.4 mph - N/A   Overcast
12:15 PM 44.6 °F 39.2 °F 41.0 °F 87% 29.51 in 1.5 mi SSW 10.4 mph - N/A   Overcast
12:35 PM 44.6 °F 37.8 °F 42.8 °F 93% 29.49 in 1.8 mi SSW 15.0 mph 20.7 mph N/A   Overcast
12:55 PM 44.6 °F 38.8 °F 41.0 °F 87% 29.48 in 1.8 mi SSW 11.5 mph 16.1 mph N/A   Overcast
1:15 PM 44.6 °F 39.7 °F 41.0 °F 87% 29.46 in 1.8 mi SSW 9.2 mph - N/A   Overcast
1:35 PM 44.6 °F 38.4 °F 41.0 °F 87% 29.46 in 1.5 mi SSW 12.7 mph 17.3 mph N/A   Overcast
1:55 PM 44.6 °F 39.2 °F 41.0 °F 87% 29.44 in 1.5 mi SSW 10.4 mph 16.1 mph N/A   Overcast
2:15 PM 44.6 °F 37.8 °F 41.0 °F 87% 29.43 in 1.5 mi SSW 15.0 mph - N/A   Overcast
2:35 PM 44.6 °F 38.4 °F 41.0 °F 87% 29.42 in 1.5 mi SSW 12.7 mph 19.6 mph N/A   Overcast
2:55 PM 44.6 °F 38.8 °F 42.8 °F 93% 29.42 in 1.5 mi South 11.5 mph 18.4 mph N/A   Overcast
3:15 PM 44.6 °F 38.1 °F 41.0 °F 87% 29.42 in 1.5 mi SSW 13.8 mph 19.6 mph N/A   Overcast
3:35 PM 44.6 °F 38.4 °F 41.0 °F 87% 29.42 in 1.8 mi SSW 12.7 mph - N/A   Overcast
3:55 PM 44.6 °F 37.4 °F 41.0 °F 87% 29.42 in 1.5 mi SSW 16.1 mph 23.0 mph N/A   Overcast
4:15 PM 44.6 °F 38.4 °F 39.2 °F 81% 29.42 in 1.0 mi SW 12.7 mph - N/A   Overcast
4:35 PM 44.6 °F 38.8 °F 39.2 °F 81% 29.42 in 0.8 mi SSW 11.5 mph - N/A   Overcast
4:55 PM 42.8 °F 35.8 °F 39.2 °F 87% 29.42 in 0.5 mi SSW 13.8 mph - N/A   Overcast
5:15 PM 42.8 °F 36.6 °F 37.4 °F 81% 29.43 in 0.5 mi SSW 11.5 mph - N/A   Overcast
5:35 PM 42.8 °F 36.6 °F 37.4 °F 81% 29.43 in 0.8 mi SSW 11.5 mph 16.1 mph N/A   Overcast
5:55 PM 42.8 °F 37.5 °F 37.4 °F 81% 29.44 in 1.5 mi SW 9.2 mph - N/A   Overcast
6:15 PM 44.6 °F 39.2 °F 39.2 °F 81% 29.44 in 1.8 mi SW 10.4 mph - N/A   Overcast
6:35 PM 44.6 °F 38.8 °F 39.2 °F 81% 29.43 in 2.0 mi SW 11.5 mph - N/A   Overcast
7:15 PM 44.6 °F 40.2 °F 41.0 °F 87% 29.43 in 2.5 mi SW 8.1 mph - N/A   Overcast
7:35 PM 44.6 °F 40.2 °F 41.0 °F 87% 29.43 in 2.5 mi WSW 8.1 mph - N/A   Overcast
7:55 PM 44.6 °F 38.8 °F 41.0 °F 87% 29.43 in 2.5 mi SW 11.5 mph - N/A   Overcast
8:15 PM 44.6 °F 40.2 °F 39.2 °F 81% 29.44 in 2.0 mi SW 8.1 mph - N/A   Overcast
8:35 PM 44.6 °F 40.2 °F 39.2 °F 81% 29.44 in 2.0 mi SW 8.1 mph - N/A   Overcast
8:55 PM 44.6 °F 39.7 °F 39.2 °F 81% 29.44 in 2.0 mi WSW 9.2 mph - N/A   Overcast
9:15 PM 44.6 °F 40.2 °F 39.2 °F 81% 29.44 in 2.5 mi WSW 8.1 mph - N/A   Overcast
9:35 PM 46.4 °F 41.9 °F 39.2 °F 76% 29.44 in 3.0 mi WSW 9.2 mph - N/A   Overcast
9:55 PM 46.4 °F 41.5 °F 39.2 °F 76% 29.44 in 4.0 mi WSW 10.4 mph 16.1 mph N/A   Overcast
10:15 PM 46.4 °F 42.4 °F 39.2 °F 76% 29.44 in 4.0 mi WSW 8.1 mph 19.6 mph N/A   Overcast
10:35 PM 44.6 °F 38.8 °F 39.2 °F 81% 29.44 in 4.0 mi West 11.5 mph 19.6 mph N/A   Mostly Cloudy
10:55 PM 44.6 °F 39.7 °F 37.4 °F 76% 29.44 in 4.0 mi West 9.2 mph 17.3 mph N/A   Partly Cloudy
11:15 PM 44.6 °F 38.8 °F 37.4 °F 76% 29.45 in 5.0 mi West 11.5 mph 16.1 mph N/A   Clear
11:55 PM 42.8 °F 37.0 °F 33.8 °F 70% 29.47 in 9.0 mi West 10.4 mph 21.9 mph N/A   Clear